Regional Weather Roundup
Issued by NWS Cleveland, OH

Home | Current Version | Previous Version | Text Only | Print | Product List | Glossary Off
Versions: 1 2 3 4 5 6 7 8 9 10 11 12 13 14 15 16 17 18 19 20 21 22 23 24 25 26 27 28 29 30 31 32 33 34 35 36 37 38 39 40 41 42 43 44 45 46 47 48 49 50

000
ASUS41 KCLE 190010
RWRCLE
OHIO REGIONAL WEATHER ROUNDUP
NATIONAL WEATHER SERVICE WILMINGTON, OH
800 PM EDT FRI APR 18 2014

NOTE: "FAIR" INDICATES FEW OR NO CLOUDS BELOW 12,000 FEET WITH NO
SIGNIFICANT WEATHER AND/OR OBSTRUCTIONS TO VISIBILITY.

OHZ001>008-015>018-024>027-034-035-043-044-190100-
   NORTHWEST OHIO

CITY           SKY/WX    TMP DP  RH WIND       PRES   REMARKS
DEFIANCE       CLEAR     62  31  31 NW10      30.22S
FINDLAY        CLEAR     63  39  41 NW7       30.20S
TOLEDO EXPRESS CLEAR     56  40  55 NE13      30.22R
TOLEDO METCALF CLEAR     55  41  59 NE8       30.24R
LIMA           CLEAR     62  40  44 NW9       30.21S
$$

OHZ009>014-019>023-028>033-038-089-190100-
   NORTHEAST OHIO

CITY           SKY/WX    TMP DP  RH WIND       PRES   REMARKS
CLE-HOPKINS    MOCLDY    55  40  56 N8        30.26S
CLE-LAKEFRONT  MOCLDY    46  41  82 NE12      30.23S
CUY CO. ARPT   MOCLDY    52  41  66 NE9       30.24F
LORAIN-ELYRIA  MOCLDY    58  42  55 NE9       30.23S
ASHTABULA      PTCLDY    48  38  68 N6        30.25S
AKRON-CANTON   MOCLDY    62  39  42 N6        30.21F
WOOSTER        PTCLDY    55  41  59 N6        30.22S
MANSFIELD      CLOUDY    61  39  44 W5        30.21F
YOUNGSTOWN     MOCLDY    56  37  49 N7        30.21F
$$

OHZ042-051>053-060>062-070>072-077>081-190100-
  SOUTHWEST OHIO

CITY           SKY/WX    TMP DP  RH WIND       PRES   REMARKS
CINC-COVINGTON MOCLDY    66  37  34 N5        30.20S
CINC-LUNKEN    MOCLDY    65  39  38 CALM      30.20S
HAMILTON       MOCLDY    67  40  37 N3        30.21S
DAYTON         PTCLDY    63  39  41 N3        30.22S
WRIGHT-PAT AFB MOCLDY    65  39  37 N5        30.20F
DAYTON GENERAL PTCLDY    66  38  35 NW6       30.19F
WILMINGTON     MOCLDY    64  36  35 N5        30.21S
$$

OHZ036-037-039>041-045>050-054>059-063>069-073>076-082>088-190100-
  CENTRAL AND SOUTHEAST OHIO

CITY           SKY/WX    TMP DP  RH WIND       PRES   REMARKS
COLUMBUS       MOCLDY    66  36  32 NW6       30.20F
OSU AIRPORT    PTCLDY    63  37  38 N5        30.20F
BOLTON FIELD   MOCLDY    63  40  42 CALM      30.21F
RICKENBACK AFB MOCLDY    66  31  27 NW5       30.20S
NEWARK         MOCLDY    61  38  42 NW5       30.20F
MARION         PTCLDY    62  39  42 CALM      30.21S
LANCASTER      MOCLDY    64  38  38 N5        30.21S
ZANESVILLE     MOCLDY    63  34  33 NW3       30.20S
NEW PHILLY     MOCLDY    62  38  40 NW5       30.21S
$$



USA.gov is the U.S. government's official web portal to all federal, state and local government web resources and services.